This demonstration page uses our WeatherBlox Daily Observations layout. Learn more.

Left ArrowRight Arrow

39.08367, -84.50855

Hourly Observations for July 25, 2020

Temp ( °F °C ) Dew Point ( °F °C ) Humidity (%) Winds ( mph kmh ) Pressure ( in mb ) Visibility ( mi km ) Precip ( " mm )
12:53 am 00:53 Clear 69 20.6 67 19.4 93 93 N N/A 30.11 1020 10 16 N/A
1:53 am 01:53 Clear 68 20 67 19.4 96 96 N N/A 30.10 1019 9 14 N/A
2:53 am 02:53 Clear 68 20 66 18.9 93 93 N N/A 30.10 1019 8 13 N/A
3:53 am 03:53 Clear with Mist and Fog 68 20 66 18.9 93 93 N N/A 30.10 1019 6 10 N/A
4:14 am 04:14 Mostly Clear 67 19.4 66 18.9 97 97 N N/A 30.10 1019 8 13 N/A
4:38 am 04:38 Mostly Cloudy 67 19.4 65 18.3 93 93 N N/A 30.10 1019 8 13 N/A
4:53 am 04:53 Cloudy 66 18.9 65 18.3 96 96 N N/A 30.09 1019 7 11 N/A
5:12 am 05:12 Cloudy 68 20 66 18.9 93 93 N N/A 30.11 1020 9 14 N/A
5:22 am 05:22 Cloudy with Mist and Fog 68 20 66 18.9 93 93 N N/A 30.11 1020 1 2 N/A
5:30 am 05:30 Cloudy with Fog 68 20 67 19.4 96 96 N N/A 30.11 1020 1 1 N/A
5:42 am 05:42 Cloudy with Mist and Fog 68 20 67 19.4 96 96 NE 3 6 30.11 1020 1 2 N/A
5:48 am 05:48 Cloudy with Fog 68 20 66 19 94 94 ENE 3 6 30.11 1020 0 0 N/A
5:53 am 05:53 Mostly Cloudy with Fog 68 20 67 19.4 96 96 ENE 3 6 30.11 1020 0 0 N/A
6:53 am 06:53 Mostly Cloudy with Fog 69 20.6 68 20 96 96 N N/A 30.13 1020 N/A N/A
7:53 am 07:53 Mostly Cloudy with Fog 69 20.6 68 20 96 96 N N/A 30.14 1021 N/A N/A
8:41 am 08:41 Cloudy with Fog 69 20.6 69 20.6 100 100 N N/A 30.15 1021 1 1 N/A
8:53 am 08:53 Cloudy with Mist and Fog 70 21.1 69 20.6 97 97 N N/A 30.15 1021 1 2 N/A
9:09 am 09:09 Partly Cloudy 72 22.2 69 20.6 91 91 N N/A 30.14 1021 8 13 N/A
9:53 am 09:53 Sunny 78 25.6 69 20.6 74 74 N N/A 30.15 1021 10 16 N/A
10:53 am 10:53 Mostly Sunny 82 27.8 71 21.7 69 69 N N/A 30.15 1021 10 16 N/A
11:53 am 11:53 Sunny 84 28.9 68 20 59 59 N N/A 30.14 1021 10 16 N/A
12:53 pm 12:53 Sunny 85 29.4 67 19.4 55 55 SSW 5 7 30.13 1020 10 16 N/A
1:53 pm 13:53 Sunny 86 30 65 18.3 49 49 N N/A 30.11 1020 10 16 N/A
2:53 pm 14:53 Partly Cloudy 89 31.7 68 20 50 50 VRB 6 9 30.09 1019 10 16 N/A
3:53 pm 15:53 Partly Cloudy 89 31.7 61 16.1 39 39 WNW 10 17 30.08 1019 10 16 N/A
4:53 pm 16:53 Partly Cloudy 89 31.7 65 18.3 45 45 W 5 7 30.06 1018 10 16 N/A
5:53 pm 17:53 Mostly Sunny 88 31.1 68 20 52 52 SSW 5 7 30.05 1018 10 16 N/A
6:53 pm 18:53 Sunny 87 30.6 65 18.3 48 48 W 7 11 30.05 1018 10 16 N/A
7:53 pm 19:53 Sunny 85 29.4 65 18.3 51 51 W 7 11 30.06 1018 10 16 N/A
8:53 pm 20:53 Sunny 77 25 70 21.1 79 79 N N/A 30.06 1018 10 16 N/A
9:53 pm 21:53 Clear 74 23.3 69 20.6 85 85 N N/A 30.08 1019 10 16 N/A
10:53 pm 22:53 Mostly Clear 73 22.8 69 20.6 87 87 N N/A 30.09 1019 10 16 N/A
11:53 pm 23:53 Clear 72 22.2 68 20 87 87 N N/A 30.11 1020 10 16 N/A

Powered by AerisWeather